Theta_e
324 320 332 318 304 301 298 304 307 308 309 312 316 316 319 320 318 308 331 335 333 334 343 344 347 348 348 349 348 347 346 344 340 339 338 338 338 338 339 341 341 337 339 339 336 338 338 336 333
321 321 321 311 301 296 299 305 305 308 313 316 317 316 316 317 326 325 327 332 331 339 343 344 345 347 348 348 346 346 346 344 339 337 337 337 337 338 338 340 339 337 338 339 341 340 338 335 333
320 319 311 305 299 300 300 306 307 310 314 315 313 318 320 320 325 326 330 331 334 339 343 344 344 347 348 347 346 346 346 344 341 336 335 337 335 338 335 338 337 337 336 337 338 338 336 335 333
309 313 309 300 298 305 307 305 312 311 314 316 315 315 322 329 328 330 327 332 333 337 342 343 346 348 347 346 346 345 345 344 340 336 336 335 336 334 335 336 340 337 334 333 333 334 334 332 331
307 308 301 296 297 304 305 310 312 311 312 313 314 313 319 328 332 327 324 334 332 337 341 343 345 346 347 346 346 345 344 342 340 337 336 336 336 336 334 334 335 335 333 332 333 333 331 330 329
300 305 297 294 299 304 307 308 312 311 312 311 314 317 319 330 330 322 324 332 336 338 341 342 338 341 344 345 344 344 343 341 341 339 335 335 336 337 336 335 333 333 332 332 333 332 330 329 327
299 298 296 297 299 302 305 307 307 310 310 310 315 315 321 325 329 322 322 331 338 339 340 340 340 339 337 339 340 341 341 340 338 338 336 336 334 335 337 336 334 332 332 332 331 330 329 329 327
301 301 296 296 298 301 306 307 309 309 308 314 315 315 316 326 330 323 324 335 337 338 339 338 338 338 338 337 333 335 336 333 335 335 332 330 329 330 330 331 334 334 332 331 330 329 329 329 328
305 297 295 298 300 303 308 305 310 310 311 311 315 316 323 331 329 322 322 329 332 336 336 337 336 337 337 336 332 330 331 329 330 330 327 324 324 324 326 326 331 334 335 333 331 330 331 330 329
299 296 298 305 303 305 309 308 307 307 307 308 320 328 330 330 327 322 322 324 327 329 332 334 335 335 336 338 332 331 331 328 328 328 325 325 325 324 324 322 326 329 329 331 332 333 331 326 322
299 296 303 305 303 302 307 307 309 306 303 307 316 324 326 326 326 323 320 322 326 328 330 333 334 333 332 332 330 329 329 327 327 327 325 326 325 323 322 321 322 321 321 322 325 327 325 323 320
300 302 303 304 308 302 301 306 307 305 306 311 322 327 326 325 326 325 322 322 326 328 329 332 332 331 329 329 328 327 329 327 325 325 326 324 322 320 321 320 320 320 321 320 320 321 322 321 322
303 302 303 308 309 304 305 302 303 306 311 313 323 327 325 325 326 326 327 325 327 327 328 332 333 331 332 329 328 328 328 328 326 326 326 324 322 321 321 320 321 320 321 320 319 320 321 320 320
308 304 305 308 307 305 301 300 303 305 310 316 325 324 324 324 325 325 326 327 326 328 328 330 333 332 331 331 330 329 329 329 329 328 328 326 325 323 322 321 320 320 320 321 320 320 320 320 320
305 300 303 304 306 303 303 298 298 305 309 309 316 322 322 324 326 326 327 328 328 328 330 331 332 334 332 330 330 330 331 330 328 328 328 327 327 325 324 322 321 321 322 322 321 320 321 320 322
298 296 292 303 306 306 303 294 300 303 305 308 310 316 321 323 326 328 329 330 329 329 329 331 332 332 333 332 330 330 330 330 330 329 329 328 328 328 325 324 323 324 323 322 321 320 320 320 320
296 287 291 296 306 306 303 294 301 303 302 302 306 310 317 320 325 327 330 331 330 331 330 330 330 330 333 333 333 332 332 329 329 328 328 329 330 329 326 325 325 325 323 322 322 321 320 319 321
286 290 292 292 299 302 302 301 302 304 301 298 304 307 309 317 322 326 328 330 330 331 332 331 331 331 331 334 333 332 332 332 332 330 329 329 330 329 328 326 325 325 324 324 325 323 322 320 319
291 291 291 296 301 300 299 300 304 305 305 300 299 299 300 309 321 325 326 328 329 330 331 331 331 331 332 330 331 330 329 331 331 332 331 330 330 330 328 327 326 326 325 326 326 324 321 317 318
288 286 287 292 297 300 298 298 302 304 304 304 301 300 299 301 311 321 324 326 326 328 330 329 331 331 331 331 332 330 329 331 332 332 331 331 330 330 329 328 327 327 327 327 326 324 319 318 318
287 286 286 288 290 291 292 291 297 302 303 306 305 304 301 302 302 314 320 324 325 325 327 329 331 331 332 332 333 330 330 329 331 331 330 331 331 330 330 329 329 328 328 327 326 326 323 319 318
284 290 290 290 289 285 290 285 290 298 300 303 306 306 301 301 303 305 315 317 320 323 326 328 330 332 332 334 332 331 330 329 330 328 330 330 331 331 331 330 330 329 329 326 327 327 326 324 319
287 291 289 290 287 284 284 283 287 294 294 298 304 306 302 299 297 295 297 299 301 303 306 311 321 326 328 332 332 331 330 330 329 330 329 331 332 332 332 332 330 330 329 327 326 325 325 324 323
293 288 288 290 287 278 283 284 283 290 294 297 302 306 297 296 297 296 297 298 298 300 300 300 303 305 308 308 314 328 329 328 326 327 327 328 331 332 332 332 332 331 330 328 326 325 325 325 324
291 284 275 277 277 276 285 282 286 291 291 295 294 298 299 299 297 299 299 299 300 301 302 304 303 302 303 303 306 307 317 326 326 327 328 324 326 327 331 332 331 331 331 330 329 326 325 324 324
287 285 276 270 274 275 285 279 285 294 293 291 293 295 297 298 299 299 300 300 300 301 302 302 302 302 303 303 303 305 309 312 319 325 327 328 326 327 332 332 331 329 330 329 329 327 326 326 324
286 282 286 279 275 276 280 282 289 289 289 291 293 295 296 298 299 299 300 300 301 301 301 300 301 301 301 302 301 302 303 305 309 312 315 319 322 322 323 328 328 327 326 324 326 325 324 324 324
289 290 280 279 268 268 276 277 280 283 287 291 292 294 296 297 298 298 299 299 300 300 301 300 300 299 299 300 300 300 300 301 302 304 305 308 312 316 317 319 322 323 323 322 321 321 320 320 321
287 284 285 283 278 273 273 275 284 285 289 290 292 293 293 295 296 297 298 298 298 298 298 298 298 297 297 298 299 298 298 298 300 300 301 301 303 304 306 308 311 314 316 317 317 316 314 312 312
287 286 285 280 276 276 278 276 287 289 290 291 291 292 292 294 294 295 295 295 295 295 295 295 295 295 295 295 296 296 296 297 297 297 297 297 298 300 301 301 304 306 307 308 309 310 309 309 307
Wind_Speed
8 7 1 4 5 5 4 7 3 1 4 3 6 9 9 4 3 4 5 14 19 14 12 13 15 16 15 16 16 16 15 15 15 14 14 14 13 13 14 13 13 14 14 15 15 15 16 15 13
6 5 3 2 4 2 7 9 6 3 7 8 8 5 4 3 3 7 9 16 18 15 12 11 13 16 15 15 16 15 15 15 14 13 13 13 14 13 14 14 14 13 14 14 15 17 16 13 11
1 3 3 4 3 3 5 3 6 2 6 6 4 5 4 4 4 5 15 17 17 14 12 11 13 15 15 15 15 15 15 17 14 12 12 12 13 12 14 13 13 13 14 13 13 14 13 12 10
1 5 4 3 6 6 9 4 10 6 5 7 5 7 4 5 11 10 18 18 16 13 14 13 14 15 14 14 14 14 12 16 15 12 12 12 12 13 13 12 12 14 11 11 11 11 11 10 9
4 3 1 3 5 7 7 5 3 5 6 5 5 3 5 2 10 16 17 16 15 12 13 13 15 16 15 14 15 13 13 14 15 12 12 14 10 12 12 11 11 11 11 10 9 9 9 8 7
4 2 1 4 7 7 5 5 7 6 6 3 7 7 2 7 13 11 13 15 13 14 13 12 13 14 15 16 16 16 14 15 12 14 11 11 13 12 11 10 10 10 9 9 7 7 7 6 5
3 3 3 5 8 9 5 4 9 8 8 5 7 6 4 4 8 9 10 10 14 13 11 10 10 11 12 12 12 13 12 13 13 13 11 11 8 12 14 11 9 10 8 7 6 6 5 4 3
3 3 2 4 4 10 3 3 4 6 3 3 5 7 6 6 9 10 8 14 13 12 11 9 7 7 6 7 10 10 10 12 9 11 12 11 10 9 9 11 11 9 9 8 7 6 5 3 3
1 3 3 4 4 5 10 1 6 2 7 4 4 7 8 16 11 8 7 11 11 10 11 9 7 6 6 5 6 7 8 11 9 9 9 8 5 6 6 5 8 9 11 10 7 5 5 5 6
4 4 6 5 5 6 7 5 5 4 5 5 7 9 16 15 13 13 13 12 11 12 11 11 10 8 7 7 6 5 5 4 5 6 6 5 6 5 6 6 8 8 8 8 7 8 7 6 3
4 6 5 1 5 8 7 10 6 4 1 7 12 11 8 7 8 9 8 10 11 12 9 11 11 10 9 6 4 3 2 3 3 6 6 5 4 4 3 3 3 3 5 3 4 4 4 5 4
4 7 6 1 5 7 8 8 8 0 3 3 17 20 10 11 11 9 11 10 14 13 12 13 12 10 9 6 6 5 5 4 3 5 7 5 3 4 4 4 5 4 3 5 5 3 5 5 6
4 4 6 4 6 5 7 6 4 10 8 2 17 15 16 12 9 5 7 8 12 11 10 15 13 11 10 9 6 6 5 5 5 6 7 5 4 5 5 5 4 4 4 4 5 5 5 5 6
3 7 11 3 5 5 4 6 3 7 6 8 17 13 13 14 14 7 7 7 12 13 11 10 13 11 11 9 9 7 6 6 6 6 7 7 5 5 4 4 4 5 5 5 5 5 5 5 5
3 4 5 8 3 3 3 7 4 8 7 4 6 13 12 13 11 13 10 8 8 10 11 12 10 12 12 9 10 7 7 7 7 5 7 8 6 6 6 5 4 5 5 6 5 4 3 3 3
6 2 5 5 10 6 6 10 9 9 9 8 10 9 13 15 18 14 11 10 7 9 11 11 8 7 12 10 5 5 5 6 6 5 6 8 7 7 6 5 5 5 4 4 3 4 4 4 4
6 6 7 5 9 8 12 3 8 2 4 8 8 9 10 11 14 14 18 16 11 14 10 11 10 9 7 10 9 7 7 5 5 5 5 9 10 9 6 4 4 5 4 4 4 4 3 4 4
5 7 6 7 6 10 16 12 8 7 6 9 8 8 7 12 18 17 17 15 13 13 12 10 11 11 9 4 7 6 6 6 6 6 7 9 8 9 7 5 5 5 4 5 3 5 4 3 4
2 6 12 8 9 8 19 15 17 8 14 9 9 7 3 8 13 16 15 15 13 13 13 11 14 12 10 5 5 7 8 7 6 6 8 9 8 10 9 7 6 6 7 7 6 3 5 4 2
14 8 5 2 2 9 9 16 17 11 13 16 7 8 8 7 2 11 14 15 15 14 14 12 14 12 9 9 6 4 5 6 6 4 6 8 10 11 10 9 9 9 7 7 7 6 3 3 4
16 18 8 2 2 2 5 6 7 7 7 17 12 7 7 4 4 1 9 15 12 11 13 13 14 14 12 11 7 2 2 3 7 6 4 7 9 10 12 12 11 10 9 8 9 9 10 7 4
15 7 6 6 5 6 2 6 9 16 15 17 21 15 7 8 4 3 3 2 2 4 9 10 12 13 13 14 12 11 8 10 8 4 4 5 8 11 13 12 12 12 9 9 9 8 8 9 9
10 8 10 6 4 2 2 0 6 11 17 20 21 20 9 4 8 9 8 8 7 9 7 7 3 4 3 12 12 9 11 8 5 6 7 10 8 11 12 13 12 13 10 11 11 10 11 9 9
7 5 5 4 4 4 8 7 4 8 13 17 15 19 12 12 8 8 8 8 7 7 8 7 8 7 7 6 5 5 11 9 6 6 7 6 7 7 10 12 12 13 12 13 10 11 11 10 10
13 9 3 4 6 11 14 4 9 3 9 8 8 9 14 15 11 7 8 8 8 9 8 7 8 6 7 7 6 6 5 4 7 9 8 5 5 5 10 12 12 11 13 14 13 12 12 11 10
13 14 5 9 10 3 11 9 7 16 5 8 11 13 12 11 9 8 9 7 6 7 7 7 7 7 8 7 7 6 6 3 3 4 3 5 4 6 10 11 12 11 11 10 10 10 11 13 10
10 19 9 6 3 5 6 5 7 3 10 9 10 12 11 10 10 10 8 7 6 5 7 6 6 6 7 7 6 6 6 6 5 6 5 3 2 2 5 6 8 10 10 9 9 8 11 10 10
7 15 9 1 7 5 4 4 6 7 12 12 12 14 11 10 11 9 7 7 6 5 6 6 6 6 6 6 6 5 6 6 6 5 6 6 7 6 5 6 6 6 5 5 6 5 5 6 7
14 11 9 5 5 7 4 5 1 6 13 14 13 12 9 8 9 8 6 6 6 5 6 6 6 7 6 5 5 6 6 7 6 5 6 6 6 6 5 5 6 6 6 5 5 4 3 5 5
7 14 27 9 8 2 3 4 13 13 14 17 14 12 7 8 8 9 7 7 8 8 7 7 7 7 6 5 6 6 6 7 6 6 6 6 7 6 7 6 6 6 6 5 4 4 4 5 5
Wind_Direction
330 308 148 30 44 55 288 264 216 198 54 356 87 89 112 60 46 181 131 121 129 138 145 146 146 143 139 135 133 133 133 120 114 109 109 107 110 108 109 110 91 94 91 97 96 95 83 75 70
318 301 25 81 86 3 275 237 234 125 139 75 59 61 58 93 88 115 99 134 133 138 141 141 140 143 141 138 141 142 131 122 114 117 117 119 119 116 117 104 106 103 96 85 92 89 85 79 69
239 231 80 132 167 196 253 236 138 108 95 100 78 68 83 109 104 115 123 132 129 136 135 136 137 142 143 141 144 141 139 124 121 119 118 114 118 120 119 111 112 106 103 95 79 78 83 82 69
358 9 355 116 247 255 295 354 131 116 48 90 106 71 49 186 146 134 133 129 128 142 136 135 134 144 144 146 147 146 141 126 123 126 123 125 123 127 124 124 113 110 103 103 99 91 88 82 71
11 75 312 269 249 252 266 131 196 112 136 161 124 110 81 22 128 126 130 132 139 135 138 139 138 143 142 142 140 139 132 120 127 138 136 129 122 134 133 133 128 124 119 116 106 102 95 88 75
356 98 45 259 263 261 246 157 147 137 153 194 95 104 139 144 128 134 127 139 132 138 144 146 141 142 142 145 144 146 141 134 138 139 147 142 143 139 132 132 140 134 131 117 121 113 107 101 88
120 72 228 280 277 304 252 205 133 167 161 201 141 85 138 141 143 131 131 114 130 135 140 145 150 149 146 146 149 154 156 148 150 149 156 140 163 151 149 141 144 139 135 141 141 138 135 138 135
116 109 252 253 280 288 284 322 144 124 171 119 109 146 171 188 145 131 126 124 130 137 141 145 141 145 143 152 155 157 164 138 153 154 146 146 161 147 162 154 156 158 159 164 166 167 172 190 216
82 48 240 239 265 281 336 8 324 105 108 67 50 135 160 147 133 128 130 127 138 144 146 147 144 149 145 145 160 154 173 150 156 155 151 141 157 164 159 177 182 165 171 171 176 196 208 228 244
126 157 228 245 6 342 311 33 315 73 85 61 64 54 123 138 154 157 161 148 150 150 155 154 155 160 157 163 148 153 145 143 145 147 157 160 174 179 178 183 182 182 182 183 187 199 219 241 258
204 196 221 337 49 352 341 350 321 120 171 177 156 147 138 141 151 157 161 154 156 154 160 163 165 164 166 157 155 155 153 154 158 161 168 182 181 194 175 172 175 175 199 203 216 218 225 237 232
244 222 214 303 40 5 335 310 339 320 243 190 165 153 149 170 178 169 168 161 161 161 163 166 171 168 165 149 165 166 167 176 182 183 183 187 182 181 173 174 187 189 192 204 215 220 237 238 249
219 260 274 55 23 340 336 319 279 296 292 40 142 151 156 167 192 189 168 166 165 170 164 167 170 167 162 159 164 168 179 182 188 184 192 184 184 188 173 185 191 201 195 205 217 220 226 232 232
253 228 258 6 337 324 336 307 17 295 357 91 145 154 160 169 185 186 191 195 174 173 172 162 170 163 159 167 172 177 177 186 188 187 192 196 186 185 194 199 200 200 193 205 211 205 212 218 218
167 273 295 239 196 259 345 323 240 262 292 130 184 155 158 172 175 208 207 198 174 179 168 171 163 167 172 170 178 179 188 187 190 185 190 192 181 195 194 198 208 205 199 201 211 227 220 229 233
140 140 237 202 172 224 98 259 298 291 277 264 189 184 169 181 187 188 201 213 199 171 171 167 164 166 175 178 177 190 176 181 192 182 188 194 193 189 200 200 206 209 205 200 197 206 226 231 228
202 184 208 310 198 185 185 194 208 342 323 301 219 197 184 183 190 189 188 195 200 183 169 175 163 179 187 176 188 198 184 179 187 187 185 195 202 199 184 201 211 199 200 204 202 217 203 225 240
160 192 204 195 210 199 229 217 267 290 20 325 263 208 207 187 197 189 189 189 176 184 187 182 178 186 184 173 190 204 208 204 189 194 200 198 198 195 192 194 203 196 199 211 199 207 212 218 234
195 178 204 202 227 171 218 220 227 230 296 305 310 297 235 226 207 186 183 179 167 180 188 189 184 186 182 186 192 194 203 209 211 205 198 201 199 199 197 202 195 194 205 215 214 200 215 237 222
250 248 235 200 258 203 208 226 219 190 205 245 277 313 316 310 239 193 176 178 175 179 186 176 186 184 186 202 205 192 185 202 212 196 211 204 200 201 203 203 207 204 211 200 208 190 201 229 182
222 235 222 208 179 60 104 266 217 217 207 234 239 248 282 259 5 203 186 183 177 168 179 180 178 182 191 195 206 182 185 216 212 215 213 209 202 201 204 203 207 208 210 208 209 200 203 225 211
225 201 203 173 170 205 195 257 214 214 221 222 233 229 231 290 256 71 74 66 181 178 171 176 176 184 196 189 192 195 212 219 221 193 201 219 210 205 204 206 206 208 213 214 206 203 205 206 225
220 186 197 156 118 117 247 173 270 193 214 220 224 227 192 65 57 73 61 73 46 38 41 33 46 147 183 193 191 194 207 218 197 205 211 227 226 220 213 209 202 210 212 220 212 208 205 202 218
249 165 157 116 110 253 181 181 236 197 214 212 213 221 122 94 62 58 65 56 51 40 34 37 37 29 14 22 343 243 207 200 187 200 211 219 223 221 221 217 214 213 213 218 214 215 209 212 215
226 171 140 162 189 234 151 178 234 273 307 192 171 176 155 149 121 86 59 54 48 32 22 21 25 27 17 15 354 337 302 265 223 209 209 200 214 219 232 223 222 225 220 220 221 215 212 210 212
210 197 173 169 190 151 141 222 237 217 131 71 76 86 85 93 97 86 84 79 63 58 37 39 35 21 15 10 357 3 8 343 338 291 257 226 221 228 234 218 217 223 227 225 229 226 220 218 214
189 217 203 108 35 106 193 258 312 124 123 112 103 96 95 98 96 97 94 89 78 85 73 54 48 35 21 10 2 3 6 12 2 339 333 345 339 355 340 273 237 223 216 210 206 230 233 223 221
210 203 210 98 142 186 205 199 197 151 139 131 120 112 108 107 102 99 93 83 76 58 63 58 60 59 27 13 9 3 1 360 356 357 357 3 342 350 338 326 317 293 268 239 233 215 239 242 238
198 211 234 176 153 167 137 232 151 184 146 128 123 114 121 117 101 99 86 87 89 84 65 63 46 34 37 21 11 10 358 360 1 7 2 360 349 356 359 358 329 315 313 319 296 289 289 264 275
261 214 199 205 213 230 129 295 323 138 129 124 119 117 109 93 86 82 79 67 59 60 50 50 45 36 15 8 15 16 11 359 6 5 5 2 356 351 350 347 336 330 327 328 285 263 243 235 241